Dewpoint
45 45 45 44 44 45 45 44 42 42 42 42 42 41 41 41 41 41 39 36 35 34 32 29 27 25 25 25 26 27 28 28 28 29 29 29 26 26 26 26 23 20 20 21 22 18 11 13 14 15 12 11 12 15 17 17 16 17 17 15 13 9 11 1 -3 -4 5 15 22 21 21 19 19 20 19 19 22 22 21 17 18 18 18 18 17
45 45 45 44 44 44 44 44 42 41 41 40 40 39 40 40 39 37 36 34 32 32 30 29 26 25 24 24 24 25 26 27 26 26 26 25 21 27 24 19 16 15 14 12 12 19 10 11 11 10 11 11 9 10 11 9 8 8 8 8 6 13 12 12 -1 -6 -10 4 6 18 19 19 12 17 18 17 16 19 20 19 19 19 18 17 16
46 45 44 44 43 44 43 42 42 41 41 41 39 38 37 37 36 35 34 32 30 29 28 28 27 24 23 22 23 23 26 26 25 23 22 20 20 22 22 15 14 12 11 10 11 10 9 10 10 14 19 10 10 10 10 9 10 9 9 8 5 3 4 11 3 -2 -6 -7 1 6 10 14 12 7 17 18 17 18 15 15 16 19 20 18 17
45 45 44 43 43 43 42 41 40 39 39 39 39 38 36 35 34 34 32 31 30 28 27 27 25 23 23 22 21 21 22 22 22 18 20 17 18 18 14 14 13 11 10 9 8 8 8 9 10 10 10 10 10 11 11 11 11 10 9 8 6 4 4 5 3 2 -0 -2 -4 1 0 1 7 9 14 16 12 12 12 13 14 16 16 18 17
45 44 43 43 43 42 41 39 38 38 37 36 38 38 34 32 32 32 31 29 29 27 27 25 23 23 24 21 21 21 20 19 19 20 18 14 15 14 11 11 10 11 11 9 14 6 8 9 10 10 10 12 11 12 13 13 12 12 10 8 8 6 13 6 4 3 2 0 -1 -2 0 2 2 3 6 6 6 7 8 7 9 12 13 15 18
45 44 43 43 43 42 41 39 38 37 36 35 35 35 31 30 30 30 30 29 29 28 27 26 25 23 22 22 21 20 19 18 19 19 16 12 11 10 10 9 10 10 10 9 9 9 10 11 11 11 11 13 14 16 15 14 13 13 11 10 9 7 6 5 5 4 3 3 2 1 0 2 4 4 4 5 5 5 5 6 6 9 11 11 13
44 43 43 43 42 41 40 39 38 37 36 34 34 33 29 28 28 28 29 28 27 26 25 25 24 23 23 22 20 18 17 16 17 16 16 13 9 7 8 9 9 10 9 9 9 10 11 12 12 12 14 16 19 18 18 17 19 15 15 13 11 10 9 7 6 5 5 4 4 2 2 2 2 2 3 6 7 7 6 6 6 6 6 7 8
43 42 42 41 41 40 40 38 37 36 35 34 32 31 29 26 26 26 26 25 24 23 23 23 22 21 21 21 21 21 20 16 15 14 12 11 9 7 8 8 8 10 9 9 9 9 11 13 13 14 16 18 20 20 20 19 20 18 17 16 15 13 12 13 10 9 8 6 4 3 1 1 3 4 6 6 6 7 8 7 7 7 6 6 6
41 41 40 40 40 39 38 36 35 34 33 32 30 29 27 24 25 24 25 25 25 22 21 20 19 18 17 16 14 15 15 14 14 10 10 9 9 8 9 10 8 9 9 9 9 9 10 12 14 16 20 24 25 24 23 23 23 23 22 19 20 16 19 19 19 14 14 13 10 6 5 4 4 4 4 4 6 6 6 8 8 8 7 7 6
40 40 39 39 39 38 36 35 33 33 32 29 27 26 23 22 22 22 24 24 24 21 19 19 17 16 15 12 12 16 15 18 21 23 21 11 10 14 13 11 9 9 10 9 8 9 10 11 17 26 27 27 27 26 26 26 25 25 24 23 23 23 23 22 21 20 19 17 15 12 13 10 8 6 5 4 4 5 5 5 5 5 5 6 6
40 39 39 38 38 37 35 33 32 31 31 29 26 25 23 22 22 24 24 22 23 22 21 20 19 17 16 13 12 12 13 16 25 26 27 25 15 12 13 13 10 9 10 10 10 10 11 14 20 25 26 26 26 27 28 28 28 28 26 25 24 24 24 23 22 20 18 18 17 17 14 12 10 7 6 5 5 4 4 5 5 6 7 8 10
39 39 38 38 37 35 34 32 31 30 29 27 27 27 25 26 26 27 27 25 24 22 21 21 21 19 16 14 12 11 9 22 27 29 29 29 23 15 15 18 16 9 10 11 12 12 12 13 21 22 22 24 26 27 27 28 29 29 29 29 28 27 26 24 22 21 21 19 18 18 15 13 11 9 7 5 5 5 5 5 6 6 7 9 9
39 38 37 37 35 34 33 31 30 29 27 27 28 28 28 27 27 28 27 27 27 25 22 23 20 20 19 16 13 12 11 27 27 29 29 27 25 21 20 20 18 14 10 10 11 12 14 18 18 19 23 26 27 26 26 27 28 29 29 30 30 30 30 29 27 24 21 21 20 19 15 12 11 10 9 7 9 6 6 7 7 8 8 9 9
39 38 37 36 34 33 31 31 30 28 28 28 27 28 28 28 28 28 28 28 27 27 27 26 24 21 17 15 14 12 11 25 27 28 29 28 27 24 22 20 19 13 10 10 12 14 16 18 21 21 22 25 25 25 25 25 25 25 26 26 26 27 29 30 30 29 27 23 20 20 18 16 13 12 12 13 10 12 12 13 12 13 13 13 13
38 38 36 35 34 31 30 30 28 28 28 29 28 28 28 28 28 28 28 27 27 27 26 26 26 25 24 22 19 17 14 26 27 28 29 28 27 24 24 23 21 19 12 12 14 16 19 21 21 22 23 23 24 24 24 25 25 26 26 26 26 24 24 24 25 26 27 26 24 21 20 18 16 14 13 15 14 13 13 14 14 14 15 16 16
36 36 36 34 32 29 30 29 28 27 27 28 28 28 30 29 28 28 28 27 27 27 27 27 27 26 26 24 23 21 19 26 28 29 29 28 26 23 24 22 22 20 19 14 17 21 22 22 23 24 24 23 25 27 26 25 25 25 25 25 25 25 24 24 25 26 25 24 24 23 23 22 24 22 22 22 21 22 22 22 22 21 20 19 18
35 35 35 32 30 29 29 29 29 29 28 28 28 28 28 28 28 28 28 28 28 26 27 27 27 26 25 24 22 21 22 27 29 29 29 29 24 22 23 22 21 21 20 19 19 19 20 22 23 23 23 23 26 28 28 28 27 26 25 25 25 25 24 23 24 26 26 26 26 27 27 29 28 29 29 29 27 27 26 24 23 22 20 19 18
35 34 33 30 30 28 28 29 29 29 29 28 28 28 29 29 29 28 29 27 28 28 27 27 27 25 24 23 22 22 24 28 30 30 29 27 24 23 22 22 22 22 22 21 21 19 20 25 24 22 23 22 26 27 27 28 27 26 25 24 24 23 23 22 20 21 25 25 26 26 26 26 26 26 27 27 26 25 23 21 22 21 20 20 19
34 32 32 30 29 29 29 30 30 29 29 29 29 29 29 29 29 28 28 27 27 28 26 26 25 26 24 24 27 22 25 29 30 30 30 27 25 25 24 24 23 23 23 22 22 22 21 25 26 24 22 22 26 26 27 27 26 25 24 24 23 23 23 23 23 23 23 22 20 19 20 22 22 20 21 24 25 25 22 22 22 21 20 20 19
33 32 30 28 29 30 30 30 30 30 29 29 30 29 29 29 28 28 28 27 26 26 25 25 26 25 25 24 23 23 25 28 30 30 31 29 28 27 26 24 24 25 25 25 25 25 24 23 26 27 27 27 27 27 27 28 26 25 24 23 23 23 24 24 25 25 24 24 24 24 22 21 20 19 18 18 19 21 20 20 20 20 20 20 19
31 30 28 28 30 30 30 30 30 30 30 30 29 29 29 28 28 28 26 26 26 24 24 25 25 24 23 24 23 24 26 28 30 31 31 31 30 29 27 27 28 28 28 29 29 28 28 27 26 28 29 30 30 30 30 29 29 27 27 25 25 26 27 26 27 27 27 26 26 26 25 25 24 22 20 20 20 20 20 21 21 21 20 19 19
29 28 28 30 30 30 31 30 30 30 30 30 29 29 29 28 28 27 26 25 25 25 25 23 23 23 23 25 23 24 26 27 27 30 31 31 30 30 30 30 30 30 29 29 29 29 29 28 28 28 30 30 30 29 29 29 28 27 26 27 27 27 27 27 27 27 26 26 26 26 25 24 23 22 21 20 20 20 21 20 21 21 21 21 20
29 29 30 30 30 30 30 30 29 29 29 29 29 29 28 28 28 27 26 26 26 26 25 25 24 23 23 23 24 25 26 25 27 29 30 30 30 30 30 31 31 30 29 29 29 29 28 26 26 29 28 28 27 26 26 26 25 26 26 27 27 28 27 25 25 25 24 23 23 23 23 23 23 23 23 22 22 22 21 21 21 22 22 22 21
30 30 30 30 30 30 30 30 29 29 29 29 29 27 28 28 27 26 26 25 24 24 24 24 23 22 22 23 23 24 25 25 26 28 29 30 30 31 31 31 31 31 30 29 29 27 27 24 25 26 24 24 25 25 26 26 26 26 26 25 24 23 22 21 20 20 20 19 19 19 19 21 21 21 21 21 20 20 20 21 20 21 20 20 20
30 30 30 30 30 30 30 29 29 29 29 28 27 27 28 27 25 26 25 24 24 24 23 24 23 23 23 23 23 23 23 24 25 26 27 29 30 30 31 31 32 32 30 30 28 26 25 25 26 26 26 25 24 23 23 22 21 21 21 21 21 19 18 18 18 18 18 18 19 19 19 20 20 21 21 20 20 19 19 18 16 15 14 13 13
30 29 29 30 30 30 29 29 29 28 28 27 27 26 26 26 25 24 25 24 24 24 23 23 23 24 23 23 23 23 23 23 23 24 26 27 28 29 30 31 31 30 29 27 27 26 26 25 24 22 20 19 17 17 18 18 19 20 20 20 17 18 18 18 18 18 17 17 17 17 17 17 18 18 18 18 17 16 15 15 14 13 11 11 11
29 29 29 29 29 29 28 27 27 28 27 27 26 26 26 25 25 25 25 24 24 24 24 24 24 24 24 24 23 22 21 21 21 21 23 24 24 24 25 26 25 25 24 23 23 23 21 19 20 20 19 20 20 20 20 19 19 18 18 19 19 18 18 18 18 18 18 17 17 17 17 17 17 17 15 15 15 15 14 13 12 12 11 11 10
28 28 28 28 28 28 28 26 27 27 27 27 26 26 26 26 25 25 25 25 25 25 24 24 24 24 24 23 21 20 20 19 19 18 19 20 20 20 21 20 20 20 20 19 18 17 17 19 18 18 18 18 18 19 19 19 19 18 18 18 18 19 19 18 18 18 17 17 16 15 15 14 13 13 14 13 13 13 13 12 12 11 11 9 8
28 28 28 28 28 27 27 28 27 27 27 27 27 27 27 26 26 25 25 27 27 26 24 24 24 24 23 21 20 19 19 18 18 19 19 19 19 16 16 16 16 16 16 19 18 17 17 17 18 18 18 18 18 18 18 18 18 18 18 17 17 17 16 16 15 14 14 13 13 12 12 12 12 12 12 11 11 11 12 11 11 10 10 8 6
28 28 27 27 27 27 27 27 27 26 25 24 24 24 25 27 25 23 23 25 26 27 26 24 23 22 21 20 19 19 18 18 21 21 21 20 19 18 18 18 18 19 21 22 21 19 19 19 19 19 19 19 18 18 17 16 16 16 15 15 15 14 14 13 12 11 10 10 9 9 9 9 8 8 8 7 7 7 8 8 7 7 7 6 4
26 27 26 26 26 26 26 26 25 24 24 24 23 22 22 24 26 25 25 25 24 24 25 24 23 22 21 20 22 24 23 23 22 22 22 21 21 21 22 22 22 23 23 22 21 21 20 20 20 20 19 18 18 17 15 14 13 12 11 11 11 11 11 10 9 6 5 5 6 6 6 5 4 4 4 3 3 3 3 4 3 3 3 3 2
25 25 25 25 25 25 25 24 24 23 23 23 22 22 21 21 23 25 25 24 25 25 24 23 23 24 24 23 23 22 23 24 23 23 23 23 23 23 23 24 25 25 25 25 22 22 22 21 20 19 17 17 15 13 13 12 10 9 9 8 8 9 7 5 4 0 2 2 2 3 3 3 3 2 2 1 1 0 0 0 -0 -1 -0 -1 -1
25 25 25 25 24 23 23 23 23 23 23 22 22 21 21 21 21 22 23 25 25 25 24 24 24 25 24 24 24 24 24 24 24 24 24 24 25 25 25 26 25 24 23 22 21 19 18 18 17 15 14 14 13 12 10 9 8 7 6 5 4 3 2 -2 -1 0 0 1 1 -0 0 0 0 0 0 -1 -1 -2 -2 -2 -2 -2 -2 -3 -3
25 24 23 23 23 22 22 22 22 22 22 22 22 22 21 21 21 22 22 22 23 24 25 25 24 24 24 25 25 25 25 25 25 25 25 25 25 24 23 21 22 21 19 16 15 15 15 14 15 13 13 12 11 9 7 6 4 2 2 1 -1 -3 -5 -5 -3 -2 -1 -1 -3 -2 -2 -2 -1 -3 -3 -3 -3 -3 -3 -3 -3 -4 -4 -4 -5
23 19 18 20 22 22 21 21 21 21 21 21 20 21 21 21 22 21 21 20 20 20 20 22 24 25 25 25 26 25 25 24 23 23 22 22 21 21 21 18 15 12 12 11 11 12 11 11 10 9 9 6 5 5 3 -1 -2 -3 -5 -5 -5 -4 -4 -4 -3 -3 -3 -4 -4 -5 -3 -4 -6 -3 -3 -5 -5 -5 -5 -4 -4 -4 -5 -5 -5
21 20 20 20 21 20 20 20 20 20 20 20 20 20 19 20 20 19 19 18 17 16 15 15 18 23 23 23 23 23 22 22 21 20 19 19 19 18 12 11 11 9 8 8 8 7 8 6 6 5 4 2 1 -2 -4 -5 -7 -7 -7 -6 -6 -7 -7 -6 -4 -4 -6 -6 -5 -5 -4 -7 -6 -6 -6 -5 -7 -5 -5 -5 -5 -5 -5 -5 -5
19 19 18 19 19 18 18 18 19 19 19 16 17 18 18 18 17 17 16 16 14 14 13 14 16 16 17 16 20 21 20 20 19 17 16 16 17 12 7 8 8 6 6 4 4 4 3 2 1 -1 -2 -4 -5 -6 -7 -8 -8 -10 -5 -6 -9 -9 -8 -7 -5 -4 -8 -7 -7 -9 -9 -8 -8 -8 -7 -8 -6 -6 -6 -6 -6 -6 -5 -5 -5
18 18 17 17 17 17 16 16 15 15 14 14 15 16 15 15 15 15 14 14 13 12 12 14 15 14 13 13 16 16 15 15 12 9 8 8 4 4 4 3 3 3 3 1 -0 -1 -2 -4 -6 -6 -7 -8 -10 -9 -8 -10 -9 -9 -9 -10 -9 -8 -5 -5 -5 -9 -10 -9 -8 -9 -8 -8 -9 -9 -7 -9 -9 -9 -7 -6 -7 -8 -7 -6 -7
14 15 15 16 17 15 13 12 12 13 13 13 14 14 13 12 12 13 12 11 11 10 11 12 12 12 11 11 11 11 9 5 1 -2 -4 -4 -3 -1 -0 0 -0 -1 -2 -4 -5 -5 -6 -7 -7 -9 -9 -9 -9 -10 -10 -10 -10 -10 -11 -11 -10 -10 -9 -10 -10 -11 -10 -10 -11 -10 -10 -10 -10 -10 -9 -10 -10 -10 -10 -10 -8 -8 -9 -9 -9
12 13 14 16 14 13 10 10 11 11 11 12 12 11 11 10 11 11 10 8 8 7 7 7 6 6 7 9 9 8 4 2 -1 -4 -6 -6 -6 -7 -5 -5 -4 -5 -6 -7 -7 -9 -9 -8 -9 -10 -10 -12 -11 -11 -10 -11 -11 -10 -11 -10 -10 -11 -10 -11 -11 -11 -11 -12 -12 -12 -11 -12 -11 -11 -11 -9 -10 -10 -10 -9 -9 -8 -8 -9 -8
12 12 11 14 12 11 10 10 10 10 10 9 10 10 10 9 8 8 8 7 6 5 5 4 3 2 4 6 10 7 2 -1 -4 -6 -7 -7 -8 -10 -9 -8 -7 -9 -8 -8 -9 -9 -9 -9 -10 -10 -10 -11 -11 -11 -12 -11 -11 -11 -11 -10 -10 -10 -10 -12 -13 -12 -13 -13 -13 -13 -13 -12 -12 -12 -12 -11 -6 -7 -9 -9 -9 -9 -8 -9 -8
10 10 9 9 9 9 9 8 8 6 7 6 8 8 6 5 6 6 6 5 4 3 3 2 1 3 7 11 11 8 -1 -4 -5 -7 -8 -9 -9 -10 -9 -9 -9 -10 -9 -8 -9 -9 -10 -11 -11 -11 -11 -11 -11 -11 -11 -12 -12 -12 -11 -11 -11 -11 -11 -10 -11 -14 -15 -14 -14 -14 -15 -13 -11 -10 -9 -6 -9 -11 -12 -12 -11 -11 -11 -10 -11
8 7 7 7 7 6 6 5 4 5 5 5 4 3 3 4 4 4 3 3 2 1 1 1 1 2 7 13 10 5 -6 -7 -8 -8 -9 -10 -10 -10 -10 -10 -9 -11 -12 -11 -10 -11 -11 -11 -11 -11 -11 -11 -12 -12 -11 -11 -12 -12 -11 -13 -12 -13 -13 -13 -13 -14 -14 -14 -14 -14 -16 -15 -13 -13 -13 -12 -13 -12 -13 -13 -13 -12 -11 -13 -12
6 6 5 5 4 3 3 3 3 3 3 2 1 1 1 2 2 1 1 -0 -0 -0 0 1 1 3 5 7 3 -5 -9 -9 -10 -10 -11 -10 -10 -10 -10 -10 -10 -11 -13 -12 -13 -13 -13 -13 -13 -12 -14 -14 -14 -17 -14 -13 -14 -14 -14 -14 -13 -13 -13 -14 -14 -15 -14 -14 -15 -15 -16 -15 -13 -14 -13 -11 -15 -14 -14 -14 -13 -13 -13 -14 -13
4 4 3 2 2 2 2 1 1 0 -1 -1 -1 -1 -1 0 -0 -1 -2 -2 -2 -2 -1 -0 0 1 0 -2 -5 -8 -10 -10 -10 -11 -11 -10 -11 -11 -10 -11 -13 -14 -13 -13 -13 -15 -16 -15 -15 -16 -16 -15 -15 -16 -16 -14 -15 -14 -13 -13 -14 -13 -13 -14 -14 -16 -16 -19 -16 -16 -15 -14 -15 -14 -13 -13 -14 -15 -13 -14 -14 -11 -13 -14 -14
3 2 2 1 0 -0 -1 -1 -2 -1 -1 -1 -2 -2 -2 -2 -3 -3 -3 -3 -4 -4 -5 -4 -3 -3 -4 -6 -9 -10 -10 -12 -11 -11 -11 -11 -10 -10 -11 -12 -12 -14 -13 -12 -14 -17 -15 -15 -15 -15 -15 -15 -15 -15 -15 -16 -15 -15 -15 -15 -14 -13 -14 -16 -17 -17 -18 -19 -16 -16 -15 -16 -16 -14 -12 -15 -15 -14 -15 -16 -16 -14 -14 -14 -14
2 1 0 -0 -1 -2 -3 -3 -2 -2 -2 -2 -3 -3 -4 -4 -4 -5 -5 -4 -5 -6 -6 -7 -7 -7 -8 -10 -10 -11 -11 -12 -11 -11 -13 -13 -14 -12 -13 -14 -14 -15 -14 -14 -17 -16 -17 -16 -16 -16 -16 -16 -16 -16 -16 -14 -15 -14 -15 -14 -14 -14 -14 -14 -15 -17 -16 -17 -16 -17 -16 -15 -15 -15 -13 -13 -14 -14 -15 -15 -15 -16 -16 -14 -15
0 -0 -1 -3 -3 -3 -4 -4 -4 -5 -4 -4 -5 -5 -6 -6 -6 -6 -7 -8 -8 -8 -8 -9 -9 -9 -10 -10 -11 -11 -12 -11 -11 -12 -12 -12 -13 -13 -14 -17 -17 -15 -15 -16 -16 -16 -16 -16 -17 -17 -16 -16 -16 -16 -16 -16 -15 -14 -14 -14 -14 -15 -14 -14 -16 -17 -16 -17 -17 -18 -18 -17 -16 -16 -15 -16 -18 -16 -16 -16 -15 -15 -15 -15 -14
-2 -2 -3 -3 -4 -4 -5 -5 -6 -5 -6 -6 -6 -6 -7 -7 -8 -8 -9 -9 -9 -10 -10 -10 -10 -11 -11 -11 -11 -11 -12 -13 -12 -13 -12 -12 -13 -14 -14 -16 -17 -16 -16 -15 -15 -16 -17 -16 -16 -16 -17 -17 -17 -17 -16 -16 -15 -15 -15 -15 -14 -13 -13 -14 -15 -17 -15 -15 -16 -17 -19 -18 -18 -17 -16 -17 -16 -17 -16 -17 -17 -16 -16 -16 -16
-3 -4 -3 -4 -4 -4 -5 -5 -5 -6 -7 -7 -7 -8 -9 -9 -9 -10 -10 -10 -10 -11 -10 -10 -10 -11 -11 -11 -12 -12 -12 -12 -12 -12 -12 -12 -12 -13 -14 -15 -17 -17 -16 -16 -15 -15 -16 -17 -17 -18 -18 -18 -17 -17 -16 -16 -16 -15 -16 -15 -12 -11 -11 -11 -13 -14 -15 -16 -16 -16 -16 -17 -18 -17 -17 -17 -18 -18 -18 -17 -17 -15 -16 -18 -18
-6 -5 -6 -6 -7 -7 -7 -7 -7 -8 -8 -8 -8 -9 -9 -9 -9 -10 -10 -11 -10 -10 -10 -10 -11 -11 -12 -11 -12 -11 -12 -12 -11 -11 -11 -11 -13 -13 -14 -15 -15 -16 -16 -16 -16 -15 -16 -16 -16 -16 -17 -17 -17 -17 -17 -16 -16 -16 -14 -12 -10 -9 -9 -10 -12 -12 -13 -13 -16 -15 -15 -16 -17 -17 -17 -16 -17 -18 -16 -16 -16 -17 -18 -17 -17